GW3939 Weather Reports


time (UTC)temp
C
wind
direction
speed
KPH
gust
KPH
rain 1hr
cm
rain 24hr
cm
rain mn
cm
humidity
%
barometer
mb
20260506025556 8 345 0.0 1.6 0.00 0.00 0.00 45 1010.5
20260506025020 8 312 0.0 1.6 0.00 0.00 0.00 44 1010.5
20260506024605 8 311 0.0 3.2 0.00 0.00 0.00 44 1010.5
20260506024015 8 355 0.0 3.2 0.00 0.00 0.00 44 1010.5
20260506023535 8 349 0.0 3.2 0.00 0.00 0.00 44 1010.3
20260506023013 8 4 0.0 3.2 0.00 0.00 0.00 44 1010.2
20260506022548 8 290 0.0 3.2 0.00 0.00 0.00 43 1010.2
20260506022026 8 354 0.0 3.2 0.00 0.00 0.00 42 1010.1
20260506021540 8 305 0.0 3.2 0.00 0.00 0.00 41 1010.1
20260506021017 8 68 0.0 11.3 0.00 0.00 0.00 41 1010.0
20260506020540 8 297 1.6 11.3 0.00 0.00 0.00 41 1009.9
20260506020110 8 37 0.0 3.2 0.00 0.00 0.00 41 1009.8
20260506015543 8 289 0.0 3.2 0.00 0.00 0.00 43 1009.7
20260506015058 9 323 0.0 3.2 0.00 0.00 0.00 41 1009.6
20260506014541 9 263 0.0 4.8 0.00 0.00 0.00 41 1009.6
20260506014058 9 278 0.0 8.0 0.00 0.00 0.00 40 1009.5
20260506013541 9 318 1.6 8.0 0.00 0.00 0.00 40 1009.4
20260506013058 9 307 1.6 11.3 0.00 0.00 0.00 40 1009.2
20260506012517 10 300 1.6 11.3 0.00 0.00 0.00 40 1009.1
20260506012039 10 342 0.0 6.4 0.00 0.00 0.00 40 1009.0
20260506011532 10 345 1.6 9.7 0.00 0.00 0.00 39 1009.0
20260506011036 10 278 3.2 9.7 0.00 0.00 0.00 39 1008.8
20260506010514 10 293 0.0 8.0 0.00 0.00 0.00 39 1008.8
20260506010036 10 344 1.6 8.0 0.00 0.00 0.00 39 1008.7
20260506005510 10 284 0.0 3.2 0.00 0.00 0.00 39 1008.7
20260506005047 10 304 0.0 4.8 0.00 0.00 0.00 39 1008.6
20260506004520 10 346 1.6 8.0 0.00 0.00 0.00 39 1008.5
20260506004048 10 252 1.6 8.0 0.00 0.00 0.00 39 1008.4
20260506003523 10 279 1.6 8.0 0.00 0.00 0.00 38 1008.4
20260506003058 10 25 0.0 14.5 0.00 0.00 0.00 38 1008.5
20260506002536 10 32 1.6 14.5 0.00 0.00 0.00 38 1008.4
20260506002016 11 283 3.2 12.9 0.00 0.00 0.00 37 1008.5
20260506001537 11 61 1.6 14.5 0.00 0.00 0.00 37 1008.4
20260506001014 11 293 4.8 16.1 0.00 0.00 0.00 37 1008.4
20260506000551 11 27 3.2 16.1 0.00 0.00 0.00 37 1008.4
20260506000021 11 2 4.8 16.1 0.00 0.00 0.00 36 1008.3
20260505235554 11 290 4.8 14.5 0.00 0.00 0.00 37 1008.2
20260505235010 11 296 4.8 12.9 0.00 0.00 0.00 36 1008.2
20260505234542 11 333 3.2 12.9 0.00 0.00 0.00 36 1008.2
20260505234010 11 340 1.6 16.1 0.00 0.00 0.00 36 1008.2
20260505233533 11 269 3.2 16.1 0.00 0.00 0.00 35 1008.2
20260505233010 11 304 1.6 11.3 0.00 0.00 0.00 37 1008.2
20260505232550 11 290 1.6 8.0 0.00 0.00 0.00 36 1008.1
20260505232101 12 290 0.0 9.7 0.00 0.00 0.00 35 1008.1
20260505232002 12 297 0.0 9.7 0.00 0.00 0.00 35 1008.1
20260505231542 12 295 3.2 9.7 0.00 0.00 0.00 36 1008.1
20260505231100 12 332 3.2 16.1 0.00 0.00 0.00 35 1008.1
20260505231002 12 359 3.2 16.1 0.00 0.00 0.00 35 1008.2
20260505230522 12 275 4.8 12.9 0.00 0.00 0.00 35 1008.1
20260505230108 12 319 1.6 14.5 0.00 0.00 0.00 35 1008.1
20260505225525 12 302 6.4 14.5 0.00 0.00 0.00 34 1008.1
20260505225058 12 319 4.8 12.9 0.00 0.00 0.00 34 1008.0
20260505224534 12 287 3.2 11.3 0.00 0.00 0.00 34 1008.0
20260505224101 13 294 1.6 11.3 0.00 0.00 0.00 35 1008.0
20260505223515 13 290 0.0 16.1 0.00 0.00 0.00 33 1008.0
20260505223041 13 287 3.2 14.5 0.00 0.00 0.00 32 1008.1
20260505222524 13 269 3.2 19.3 0.00 0.00 0.00 32 1007.8
20260505222042 13 275 4.8 19.3 0.00 0.00 0.00 32 1008.0
20260505221524 13 278 6.4 24.1 0.00 0.00 0.00 32 1007.8
20260505221059 13 311 6.4 24.1 0.00 0.00 0.00 33 1007.7
20260505220513 13 349 6.4 16.1 0.00 0.00 0.00 34 1007.6
20260505220040 13 314 4.8 22.5 0.00 0.00 0.00 31 1007.6
20260505215517 13 13 3.2 22.5 0.00 0.00 0.00 31 1007.6
20260505215040 13 335 4.8 14.5 0.00 0.00 0.00 33 1007.6
20260505214556 13 316 3.2 12.9 0.00 0.00 0.00 32 1007.6
20260505214040 13 1 3.2 12.9 0.00 0.00 0.00 31 1007.5
20260505213553 13 300 4.8 17.7 0.00 0.00 0.00 33 1007.6
20260505213019 13 283 4.8 17.7 0.00 0.00 0.00 34 1007.6
20260505212556 13 235 4.8 20.9 0.00 0.00 0.00 32 1007.5
20260505212018 13 332 4.8 20.9 0.00 0.00 0.00 32 1007.7
20260505211540 13 352 0.0 14.5 0.00 0.00 0.00 35 1007.5
20260505211012 13 323 6.4 19.3 0.00 0.00 0.00 33 1007.6
20260505210531 13 290 3.2 20.9 0.00 0.00 0.00 33 1007.6
20260505210049 13 290 4.8 19.3 0.00 0.00 0.00 33 1007.6
20260505205531 13 326 3.2 16.1 0.00 0.00 0.00 32 1007.6
20260505205050 14 291 1.6 9.7 0.00 0.00 0.00 33 1007.7
20260505204544 13 158 1.6 16.1 0.00 0.00 0.00 34 1007.6
20260505204049 13 263 3.2 16.1 0.00 0.00 0.00 32 1007.7
20260505203514 13 280 3.2 12.9 0.00 0.00 0.00 33 1007.6
20260505203059 14 276 0.0 9.7 0.00 0.00 0.00 37 1007.6
20260505202510 13 283 0.0 11.3 0.00 0.00 0.00 34 1007.7
20260505202032 13 231 0.0 9.7 0.00 0.00 0.00 35 1007.8
20260505201510 13 280 1.6 8.0 0.00 0.00 0.00 34 1007.9
20260505201030 13 217 0.0 11.3 0.00 0.00 0.00 36 1007.8
20260505200508 13 300 3.2 19.3 0.00 0.00 0.00 35 1008.1
20260505200030 13 285 4.8 19.3 0.00 0.00 0.00 32 1008.2
20260505195507 13 297 1.6 20.9 0.00 0.00 0.00 33 1008.1
20260505195030 13 323 1.6 20.9 0.00 0.00 0.00 33 1008.2
20260505194604 13 332 4.8 19.3 0.00 0.00 0.00 32 1008.2
20260505194032 13 335 3.2 17.7 0.00 0.00 0.00 34 1008.3
20260505193548 13 281 3.2 14.5 0.00 0.00 0.00 34 1008.2
20260505193031 13 236 3.2 24.1 0.00 0.00 0.00 33 1008.2
20260505192547 13 290 4.8 24.1 0.00 0.00 0.00 31 1008.1
20260505192025 13 322 6.4 24.1 0.00 0.00 0.00 31 1008.4
20260505191603 13 307 3.2 22.5 0.00 0.00 0.00 33 1008.4
20260505191012 13 273 8.0 22.5 0.00 0.00 0.00 31 1008.3
20260505190548 13 276 1.6 17.7 0.00 0.00 0.00 37 1008.2
20260505190010 13 79 4.8 17.7 0.00 0.00 0.00 32 1008.2
20260505185545 13 270 4.8 17.7 0.00 0.00 0.00 31 1008.2
20260505185007 13 23 6.4 17.7 0.00 0.00 0.00 33 1008.4
20260505184531 13 21 3.2 17.7 0.00 0.00 0.00 32 1008.1
20260505184004 12 21 1.6 17.7 0.00 0.00 0.00 35 1008.3
20260505183520 12 11 4.8 17.7 0.00 0.00 0.00 34 1008.1
20260505183041 12 286 4.8 16.1 0.00 0.00 0.00 33 1007.9
20260505182519 12 284 3.2 17.7 0.00 0.00 0.00 34 1008.2
20260505182044 12 290 4.8 14.5 0.00 0.00 0.00 32 1008.0
20260505181520 12 267 1.6 16.1 0.00 0.00 0.00 36 1007.8
20260505181044 12 20 4.8 16.1 0.00 0.00 0.00 32 1007.9
20260505180518 12 253 4.8 16.1 0.00 0.00 0.00 34 1007.8
20260505180047 12 16 4.8 14.5 0.00 0.00 0.00 34 1007.8
20260505175559 12 160 1.6 22.5 0.00 0.00 0.00 36 1007.8
20260505175023 12 359 8.0 22.5 0.00 0.00 0.00 34 1007.9
20260505174558 12 168 4.8 17.7 0.00 0.00 0.00 34 1007.8
20260505174018 12 276 6.4 17.7 0.00 0.00 0.00 34 1007.9
20260505173538 13 293 1.6 12.9 0.00 0.00 0.00 35 1008.1
20260505173015 12 342 4.8 11.3 0.00 0.00 0.00 37 1008.1
20260505172538 12 286 1.6 9.7 0.00 0.00 0.00 37 1008.0
20260505172015 12 286 1.6 9.7 0.00 0.00 0.00 37 1007.9
20260505171610 11 274 1.6 19.3 0.00 0.00 0.00 36 1008.1
20260505171013 11 287 3.2 19.3 0.00 0.00 0.00 38 1008.2
20260505170543 11 340 4.8 17.7 0.00 0.00 0.00 35 1008.4
20260505170014 11 275 3.2 17.7 0.00 0.00 0.00 38 1008.0
20260505165543 11 318 4.8 17.7 0.00 0.00 0.00 35 1008.4
20260505165019 11 40 3.2 19.3 0.00 0.00 0.00 36 1008.3
20260505164549 11 306 1.6 19.3 0.00 0.00 0.00 39 1008.2
20260505164032 11 219 3.2 20.9 0.00 0.00 0.00 37 1007.8
20260505163510 11 254 3.2 20.9 0.00 0.00 0.00 37 1007.8
20260505163045 11 243 4.8 22.5 0.00 0.00 0.00 34 1007.7
20260505162505 11 252 8.0 22.5 0.00 0.00 0.00 35 1007.8
20260505162028 12 284 8.0 19.3 0.00 0.00 0.00 34 1007.6
20260505161505 11 65 4.8 20.9 0.00 0.00 0.00 38 1007.8
20260505161041 11 318 6.4 20.9 0.00 0.00 0.00 35 1008.0
20260505160519 11 276 3.2 14.5 0.00 0.00 0.00 35 1008.2
20260505153036 11 48 6.4 17.7 0.00 0.00 0.00 31 1007.9
20260505152519 11 295 6.4 17.7 0.00 0.00 0.00 31 1007.9
20260505152053 10 271 3.2 17.7 0.00 0.00 0.00 32 1007.7
20260505151534 10 255 4.8 17.7 0.00 0.00 0.00 31 1007.5
20260505151009 10 311 4.8 17.7 0.00 0.00 0.00 34 1007.7
20260505150529 10 283 1.6 17.7 0.00 0.00 0.00 36 1007.6
20260505140538 8 293 0.0 12.9 0.00 0.00 0.00 45 1008.1
20260505125015 7 293 1.6 9.7 0.00 0.00 0.00 55 1008.1
20260505124556 6 276 0.0 4.8 0.00 0.00 0.00 57 1008.1
20260505124010 6 284 0.0 4.8 0.00 0.00 0.00 56 1008.1
20260505123531 6 276 0.0 1.6 0.00 0.00 0.00 56 1008.1
20260505123009 6 277 0.0 1.6 0.00 0.00 0.00 56 1007.9
20260505122531 6 218 0.0 1.6 0.00 0.00 0.00 56 1007.9
20260505122049 6 218 0.0 3.2 0.00 0.00 0.00 55 1008.1
20260505121604 6 213 0.0 3.2 0.00 0.00 0.00 56 1008.0
20260505121049 6 221 0.0 1.6 0.00 0.00 0.00 56 1007.8
20260505120524 6 219 0.0 0.0 0.00 0.00 0.00 57 1007.8
20260505120047 6 219 0.0 3.2 0.00 0.00 0.00 58 1007.9
20260505115527 5 219 0.0 3.2 0.00 0.00 0.00 58 1007.7
20260505115049 5 280 0.0 0.0 0.00 0.00 0.00 58 1007.7
20260505114516 5 281 0.0 0.0 0.00 0.00 0.00 59 1007.4
20260505114050 5 281 0.0 0.0 0.00 0.00 0.00 61 1007.0
20260505113514 5 281 0.0 0.0 0.00 0.00 0.00 61 1006.7
20260505113056 5 280 0.0 0.0 0.00 0.00 0.00 61 1006.6
20260505112525 5 281 0.0 0.0 0.00 0.00 0.00 61 1006.2
20260505112045 5 281 0.0 0.0 0.00 0.00 0.00 61 1006.2
20260505111536 4 280 0.0 0.0 0.00 0.00 0.00 62 1006.0
20260505111009 4 281 0.0 0.0 0.00 0.00 0.00 62 1005.8
20260505110552 4 281 0.0 0.0 0.00 0.00 0.00 62 1005.9
20260505102045 6 280 0.0 1.6 0.00 0.00 0.00 55 1006.2
20260505101528 6 280 0.0 1.6 0.00 0.00 0.00 55 1006.1
20260505101005 6 246 0.0 3.2 0.00 0.00 0.00 55 1006.0
20260505100543 6 289 0.0 3.2 0.00 0.00 0.00 55 1005.9
20260505100032 6 285 0.0 3.2 0.00 0.00 0.00 54 1005.9
20260505095600 6 288 0.0 3.2 0.00 0.00 0.00 54 1005.7
20260505095044 6 288 0.0 1.6 0.00 0.00 0.00 53 1005.7
20260505094514 6 258 0.0 3.2 0.00 0.00 0.00 53 1005.7
20260505094034 7 284 0.0 3.2 0.00 0.00 0.00 53 1005.7
20260505093515 7 284 0.0 1.6 0.00 0.00 0.00 52 1005.6
20260505093043 7 291 0.0 1.6 0.00 0.00 0.00 51 1005.6
20260505092525 7 1 0.0 1.6 0.00 0.00 0.00 50 1005.6
20260505092004 7 235 0.0 6.4 0.00 0.00 0.00 50 1005.7
20260505091606 7 301 0.0 6.4 0.00 0.00 0.00 50 1005.8
20260505091022 7 1 0.0 6.4 0.00 0.00 0.00 49 1005.6
20260505090558 7 321 1.6 6.4 0.00 0.00 0.00 49 1005.8
20260505090500 7 349 0.0 6.4 0.00 0.00 0.00 49 1005.7
20260505090020 7 300 0.0 9.7 0.00 0.00 0.00 50 1005.7
20260505085555 7 293 1.6 11.3 0.00 0.00 0.00 49 1005.9
20260505085037 7 278 1.6 11.3 0.00 0.00 0.00 49 1005.9
20260505084555 7 269 0.0 3.2 0.00 0.00 0.00 50 1005.6
20260505084046 7 282 0.0 6.4 0.00 0.00 0.00 49 1005.5
20260505083521 7 294 1.6 6.4 0.00 0.00 0.00 48 1005.1
20260505083050 7 271 0.0 8.0 0.00 0.00 0.00 47 1004.9
20260505082532 8 287 0.0 9.7 0.00 0.00 0.00 47 1004.5
20260505082008 8 260 1.6 9.7 0.00 0.00 0.00 47 1004.4
20260505081549 8 297 1.6 12.9 0.00 0.00 0.00 46 1004.5
20260505081027 8 338 1.6 16.1 0.00 0.00 0.00 45 1004.4
20260505080502 8 269 3.2 17.7 0.00 0.00 0.00 46 1004.2
20260505080039 8 303 4.8 17.7 0.00 0.00 0.00 46 1004.2
20260505075502 8 237 1.6 17.7 0.00 0.00 0.00 47 1004.0
20260505075042 8 304 3.2 16.1 0.00 0.00 0.00 47 1004.0
20260505074520 8 314 1.6 17.7 0.00 0.00 0.00 48 1003.9
20260505074058 8 330 1.6 17.7 0.00 0.00 0.00 48 1003.8
20260505073538 8 288 1.6 8.0 0.00 0.00 0.00 48 1003.6
20260505073025 8 305 0.0 9.7 0.00 0.00 0.00 48 1003.5
20260505072558 8 266 3.2 9.7 0.00 0.00 0.00 48 1003.3
20260505072502 8 1 3.2 9.7 0.00 0.00 0.00 48 1003.2
20260505072036 8 30 1.6 8.0 0.00 0.00 0.00 48 1003.3
20260505071525 8 359 1.6 12.9 0.00 0.00 0.00 48 1003.3
20260505071054 9 288 1.6 12.9 0.00 0.00 0.00 47 1003.4
20260505070540 9 281 1.6 9.7 0.00 0.00 0.00 47 1003.4
20260505070015 9 354 0.0 16.1 0.00 0.00 0.00 47 1003.5
20260505065551 9 32 3.2 17.7 0.00 0.00 0.00 47 1003.4
20260505065032 9 316 6.4 17.7 0.00 0.00 0.00 47 1003.5
20260505064510 10 75 4.8 14.5 0.00 0.00 0.00 48 1003.3
20260505064048 10 262 1.6 14.5 0.00 0.00 0.00 49 1003.1
20260505063524 10 242 0.0 9.7 0.00 0.00 0.00 50 1002.8
20260505063004 10 321 0.0 4.8 0.00 0.00 0.00 49 1002.8
20260505062521 10 338 1.6 9.7 0.00 0.00 0.00 48 1003.0
20260505062056 10 293 1.6 14.5 0.00 0.00 0.00 49 1003.0
20260505061540 10 319 3.2 14.5 0.00 0.00 0.00 48 1002.8
20260505061024 10 41 4.8 33.8 0.00 0.00 0.00 48 1002.4
20260505060559 10 130 6.4 33.8 0.00 0.00 0.00 48 1002.4
20260505060038 11 328 3.2 14.5 0.00 0.00 0.00 49 1002.4
20260505055516 11 345 3.2 14.5 0.00 0.00 0.00 49 1002.4
20260505055053 11 1 0.0 9.7 0.00 0.00 0.00 49 1002.3
20260505054543 11 268 1.6 9.7 0.00 0.00 0.00 48 1002.1
20260505054017 11 284 3.2 9.7 0.00 0.00 0.00 47 1002.1
20260505053550 11 37 0.0 6.4 0.00 0.00 0.00 47 1002.0
20260505053031 11 13 1.6 6.4 0.00 0.00 0.00 47 1002.0
20260505052508 11 61 0.0 8.0 0.00 0.00 0.00 47 1001.9
20260505052042 11 286 3.2 8.0 0.00 0.00 0.00 46 1001.9
20260505051535 11 330 1.6 11.3 0.00 0.00 0.00 46 1002.0
20260505051053 12 311 3.2 11.3 0.00 0.00 0.00 46 1001.9
20260505050531 12 293 3.2 11.3 0.00 0.00 0.00 46 1001.8
20260505041506 12 325 1.6 8.0 0.00 0.00 0.00 43 1001.1
20260505041022 12 266 1.6 14.5 0.00 0.00 0.00 42 1001.1
20260505040542 12 321 3.2 14.5 0.00 0.00 0.00 42 1000.9
20260505040020 12 319 1.6 6.4 0.00 0.00 0.00 42 1000.9
20260505035544 12 292 0.0 4.8 0.00 0.00 0.00 42 1000.9
20260505035026 12 288 0.0 4.8 0.00 0.00 0.00 41 1001.2
20260505034504 12 282 0.0 3.2 0.00 0.00 0.00 41 1001.1
20260505034035 13 352 0.0 3.2 0.00 0.00 0.00 40 1000.9
20260505033550 13 288 0.0 3.2 0.00 0.00 0.00 39 1000.9
20260505033015 13 323 0.0 4.8 0.00 0.00 0.00 39 1000.9
20260505032551 13 46 0.0 6.4 0.00 0.00 0.00 38 1000.9
20260505032010 13 275 1.6 4.8 0.00 0.00 0.00 37 1001.0
20260505031538 13 284 0.0 6.4 0.00 0.00 0.00 37 1000.8
20260505031010 13 282 1.6 6.4 0.00 0.00 0.00 36 1000.7
20260505030534 14 265 1.6 6.4 0.00 0.00 0.00 36 1000.6
20260505030012 14 294 1.6 14.5 0.00 0.00 0.00 36 1000.5